HAZ2142 ZSXZ-ZSHC

Flight info

Callsign HAZ2142
Flight time 0h 53m
Altitude 24600
Route DO W126 DPX A470 OF W95 SAPIN A470 IGRAT IGRAT81
Aircraft B738/M-SDE2E3FGHIRWXY/LB1

Departure

Time 2026-05-04 03:46
Airport Xuzhou Guanyin International Airport (ZSXZ)

Arrival

Time 2026-05-04 04:39
Airport Hangzhou Xiaoshan International Airport (ZSHC)
Time Latitude Longitude Altitude Speed Heading
2026-05-04 03:32 34.05585 117.55122 119 ft 0 kts 174°
2026-05-04 03:39 34.05593 117.55121 120 ft 2 kts 176°
2026-05-04 03:40 34.05608 117.55119 120 ft 2 kts 174°
2026-05-04 03:40 34.05623 117.55118 119 ft 2 kts 174°
2026-05-04 03:40 34.05638 117.55115 120 ft 2 kts 174°
2026-05-04 03:40 34.05653 117.55114 120 ft 2 kts 174°
2026-05-04 03:41 34.05662 117.55112 120 ft 0 kts 201°
2026-05-04 03:41 34.05667 117.55117 120 ft 0 kts 257°
2026-05-04 03:41 34.05667 117.55124 120 ft 1 kts 268°
2026-05-04 03:41 34.05667 117.55127 120 ft 0 kts 266°
2026-05-04 03:42 34.05667 117.55123 120 ft 1 kts 266°
2026-05-04 03:43 34.05662 117.55054 120 ft 10 kts 272°
2026-05-04 03:43 34.05720 117.54993 119 ft 16 kts 305°
2026-05-04 03:43 34.05719 117.54800 119 ft 26 kts 265°
2026-05-04 03:43 34.05705 117.54582 119 ft 25 kts 266°
2026-05-04 03:44 34.05691 117.54372 119 ft 24 kts 265°
2026-05-04 03:44 34.05677 117.54157 120 ft 26 kts 265°
2026-05-04 03:44 34.05662 117.53942 118 ft 24 kts 265°
2026-05-04 03:44 34.05747 117.53826 118 ft 21 kts 356°
2026-05-04 03:45 34.05818 117.53841 119 ft 0 kts 79°
2026-05-04 03:45 34.05821 117.53873 119 ft 16 kts 84°
2026-05-04 03:45 34.05850 117.54330 120 ft 91 kts 86°
2026-05-04 03:45 34.05917 117.55354 120 ft 152 kts 86°
2026-05-04 03:46 34.06010 117.56682 605 ft 162 kts 86°
2026-05-04 03:46 34.06092 117.58031 1334 ft 163 kts 87°
2026-05-04 03:46 34.06170 117.59392 2062 ft 164 kts 87°
2026-05-04 03:46 34.06255 117.60807 2506 ft 179 kts 86°
2026-05-04 03:47 34.06353 117.62384 2948 ft 196 kts 86°
2026-05-04 03:47 34.06460 117.64123 3316 ft 219 kts 86°
2026-05-04 03:47 34.06579 117.66052 3810 ft 239 kts 86°
2026-05-04 03:47 34.06706 117.68115 4330 ft 257 kts 86°
2026-05-04 03:48 34.06649 117.70307 4968 ft 271 kts 97°
2026-05-04 03:48 34.06326 117.72551 5737 ft 279 kts 100°
2026-05-04 03:48 34.05951 117.74873 6491 ft 288 kts 100°
2026-05-04 03:48 34.05580 117.77245 7298 ft 294 kts 99°
2026-05-04 03:49 34.05217 117.79694 8178 ft 298 kts 98°
2026-05-04 03:49 34.04865 117.82153 9036 ft 302 kts 97°
2026-05-04 03:49 34.04520 117.84622 9863 ft 306 kts 97°
2026-05-04 03:49 34.04174 117.87161 10629 ft 313 kts 97°
2026-05-04 03:50 34.03814 117.89811 11098 ft 331 kts 97°
2026-05-04 03:50 34.03429 117.92632 11510 ft 349 kts 97°
2026-05-04 03:50 34.03024 117.95577 11867 ft 367 kts 98°
2026-05-04 03:50 34.02593 117.98701 12198 ft 386 kts 98°
2026-05-04 03:51 34.02141 118.01951 12614 ft 400 kts 98°
2026-05-04 03:51 34.01614 118.05228 13271 ft 406 kts 106°
2026-05-04 03:51 34.00330 118.08240 13964 ft 409 kts 129°
2026-05-04 03:51 33.98217 118.10477 14661 ft 409 kts 151°
2026-05-04 03:52 33.95565 118.11764 15314 ft 409 kts 166°
2026-05-04 03:52 33.92816 118.12682 15901 ft 414 kts 167°
2026-05-04 03:52 33.90023 118.13612 16499 ft 419 kts 167°
2026-05-04 03:52 33.87212 118.14580 17128 ft 423 kts 166°
2026-05-04 03:53 33.84361 118.15596 17730 ft 427 kts 166°
2026-05-04 03:53 33.81505 118.16630 18284 ft 432 kts 166°
2026-05-04 03:53 33.78615 118.17677 18853 ft 436 kts 166°
2026-05-04 03:53 33.75726 118.18726 19441 ft 439 kts 166°
2026-05-04 03:54 33.72783 118.19797 19994 ft 443 kts 166°
2026-05-04 03:54 33.69846 118.20864 20530 ft 447 kts 166°
2026-05-04 03:54 33.66836 118.21958 21069 ft 450 kts 166°
2026-05-04 03:54 33.63818 118.23055 21601 ft 453 kts 166°
2026-05-04 03:55 33.60831 118.24141 22134 ft 455 kts 166°
2026-05-04 03:55 33.57756 118.25258 22632 ft 458 kts 166°
2026-05-04 03:55 33.54732 118.26356 23136 ft 461 kts 166°
2026-05-04 03:55 33.51652 118.27470 23607 ft 464 kts 166°
2026-05-04 03:56 33.48525 118.28603 24062 ft 467 kts 166°
2026-05-04 03:56 33.45417 118.29730 24496 ft 469 kts 167°
2026-05-04 03:56 33.42313 118.30854 24658 ft 470 kts 167°
2026-05-04 03:56 33.39209 118.31977 24656 ft 468 kts 167°
2026-05-04 03:57 33.36055 118.33115 24676 ft 467 kts 167°
2026-05-04 03:57 33.32982 118.34223 24661 ft 468 kts 167°
2026-05-04 03:57 33.29851 118.35358 24669 ft 467 kts 167°
2026-05-04 03:57 33.26712 118.36488 24674 ft 468 kts 167°
2026-05-04 03:58 33.20517 118.38720 24666 ft 466 kts 167°
2026-05-04 03:58 33.17413 118.39835 24660 ft 466 kts 167°
2026-05-04 03:58 33.14301 118.40951 24663 ft 465 kts 167°
2026-05-04 03:59 33.11214 118.42059 24658 ft 464 kts 167°
2026-05-04 03:59 33.08133 118.43163 24681 ft 466 kts 167°
2026-05-04 03:59 33.04991 118.44291 24658 ft 466 kts 167°
2026-05-04 03:59 33.01904 118.45402 24664 ft 465 kts 167°
2026-05-04 04:00 32.98841 118.46501 24656 ft 465 kts 167°
2026-05-04 04:00 32.95705 118.47626 24667 ft 465 kts 167°
2026-05-04 04:00 32.92634 118.48728 24657 ft 465 kts 167°
2026-05-04 04:00 32.89540 118.49836 24687 ft 465 kts 167°
2026-05-04 04:01 32.86425 118.50947 24674 ft 465 kts 167°
2026-05-04 04:01 32.83320 118.52055 24665 ft 465 kts 167°
2026-05-04 04:01 32.80244 118.53154 24676 ft 464 kts 167°
2026-05-04 04:01 32.77164 118.54256 24666 ft 465 kts 167°
2026-05-04 04:02 32.74047 118.55371 24672 ft 465 kts 167°
2026-05-04 04:02 32.70931 118.56484 24677 ft 464 kts 167°
2026-05-04 04:02 32.67851 118.57583 24668 ft 465 kts 168°
2026-05-04 04:02 32.64777 118.58654 24676 ft 464 kts 168°
2026-05-04 04:03 32.61670 118.59703 24659 ft 464 kts 168°
2026-05-04 04:03 32.58555 118.60754 24659 ft 464 kts 168°
2026-05-04 04:03 32.55463 118.61799 24680 ft 463 kts 169°
2026-05-04 04:03 32.52328 118.62857 24688 ft 464 kts 169°
2026-05-04 04:04 32.49273 118.63890 24676 ft 463 kts 168°
2026-05-04 04:04 32.46152 118.64949 24670 ft 463 kts 168°
2026-05-04 04:04 32.43068 118.66006 24674 ft 464 kts 169°
2026-05-04 04:04 32.39945 118.67080 24691 ft 464 kts 169°
2026-05-04 04:05 32.36878 118.68129 24685 ft 463 kts 169°
2026-05-04 04:05 32.33770 118.69186 24681 ft 463 kts 169°
2026-05-04 04:05 32.30687 118.70228 24703 ft 463 kts 169°
2026-05-04 04:05 32.27590 118.71273 24674 ft 463 kts 169°
2026-05-04 04:06 32.24475 118.72321 24658 ft 463 kts 169°
2026-05-04 04:06 32.21377 118.73360 24675 ft 463 kts 169°
2026-05-04 04:06 32.18267 118.74397 24695 ft 462 kts 169°
2026-05-04 04:06 32.15168 118.75431 24693 ft 463 kts 169°
2026-05-04 04:07 32.12060 118.76471 24688 ft 463 kts 169°
2026-05-04 04:07 32.08971 118.77505 24681 ft 463 kts 169°
2026-05-04 04:07 32.05869 118.78543 24690 ft 463 kts 169°
2026-05-04 04:07 32.02795 118.79569 24690 ft 462 kts 169°
2026-05-04 04:08 31.99720 118.80595 24692 ft 462 kts 169°
2026-05-04 04:08 31.96582 118.81624 24622 ft 461 kts 171°
2026-05-04 04:08 31.93492 118.82615 24696 ft 462 kts 171°
2026-05-04 04:08 31.90416 118.83585 24718 ft 461 kts 171°
2026-05-04 04:09 31.87318 118.84566 24700 ft 461 kts 171°
2026-05-04 04:09 31.84218 118.85555 24677 ft 461 kts 171°
2026-05-04 04:09 31.81101 118.86612 24763 ft 463 kts 169°
2026-05-04 04:09 31.78060 118.87817 24665 ft 468 kts 163°
2026-05-04 04:10 31.75103 118.89585 24702 ft 476 kts 154°
2026-05-04 04:10 31.72396 118.91866 24721 ft 482 kts 145°
2026-05-04 04:10 31.69910 118.94462 24724 ft 484 kts 144°
2026-05-04 04:10 31.67323 118.97002 24714 ft 482 kts 147°
2026-05-04 04:11 31.64679 118.99399 24671 ft 481 kts 148°
2026-05-04 04:11 31.62022 119.01794 24684 ft 481 kts 149°
2026-05-04 04:11 31.59364 119.04138 24706 ft 481 kts 149°
2026-05-04 04:11 31.56689 119.06475 24712 ft 481 kts 149°
2026-05-04 04:12 31.53983 119.08840 24680 ft 481 kts 149°
2026-05-04 04:12 31.51317 119.11178 24690 ft 481 kts 149°
2026-05-04 04:12 31.48620 119.13542 24680 ft 481 kts 149°
2026-05-04 04:12 31.45947 119.15886 24671 ft 481 kts 150°
2026-05-04 04:13 31.43269 119.18220 24703 ft 482 kts 150°
2026-05-04 04:13 31.40577 119.20563 24675 ft 482 kts 149°
2026-05-04 04:13 31.37899 119.22900 24649 ft 482 kts 150°
2026-05-04 04:13 31.35208 119.25245 24709 ft 481 kts 150°
2026-05-04 04:14 31.32520 119.27582 24713 ft 481 kts 149°
2026-05-04 04:14 31.29866 119.29893 24723 ft 482 kts 149°
2026-05-04 04:14 31.27155 119.32255 24697 ft 481 kts 149°
2026-05-04 04:14 31.24481 119.34587 24661 ft 481 kts 150°
2026-05-04 04:15 31.21824 119.36903 24670 ft 481 kts 150°
2026-05-04 04:15 31.19125 119.39246 24680 ft 481 kts 150°
2026-05-04 04:15 31.16440 119.41579 24710 ft 480 kts 150°
2026-05-04 04:15 31.13762 119.43914 24661 ft 480 kts 150°
2026-05-04 04:16 31.11097 119.46243 24694 ft 480 kts 150°
2026-05-04 04:16 31.08419 119.48580 24670 ft 481 kts 150°
2026-05-04 04:16 31.05758 119.50902 24706 ft 480 kts 150°
2026-05-04 04:16 31.03096 119.53223 24713 ft 479 kts 150°
2026-05-04 04:17 31.00399 119.55571 24701 ft 481 kts 150°
2026-05-04 04:17 30.97749 119.57878 24702 ft 480 kts 150°
2026-05-04 04:17 30.95050 119.60226 24709 ft 480 kts 150°
2026-05-04 04:17 30.92403 119.62531 24539 ft 473 kts 150°
2026-05-04 04:18 30.89825 119.64780 23717 ft 462 kts 150°
2026-05-04 04:18 30.87260 119.67008 22238 ft 461 kts 150°
2026-05-04 04:18 30.84734 119.69185 20615 ft 461 kts 148°
2026-05-04 04:18 30.82165 119.71401 19023 ft 457 kts 146°
2026-05-04 04:19 30.79666 119.73570 17616 ft 447 kts 145°
2026-05-04 04:19 30.77211 119.75705 16257 ft 438 kts 144°
2026-05-04 04:19 30.74848 119.77760 14880 ft 429 kts 144°
2026-05-04 04:19 30.72643 119.79999 13446 ft 422 kts 131°
2026-05-04 04:20 30.71075 119.82761 12413 ft 403 kts 114°
2026-05-04 04:20 30.70118 119.85788 12026 ft 393 kts 106°
2026-05-04 04:20 30.69331 119.88788 11603 ft 391 kts 105°
2026-05-04 04:20 30.68550 119.91795 11067 ft 387 kts 105°
2026-05-04 04:21 30.67771 119.94729 10788 ft 366 kts 105°
2026-05-04 04:21 30.67015 119.97406 10607 ft 335 kts 110°
2026-05-04 04:21 30.65889 119.99638 10462 ft 311 kts 128°
2026-05-04 04:21 30.64351 120.01336 10348 ft 300 kts 142°
2026-05-04 04:22 30.62686 120.02737 10254 ft 295 kts 144°
2026-05-04 04:22 30.61004 120.04093 10175 ft 293 kts 144°
2026-05-04 04:22 30.59327 120.05455 10069 ft 293 kts 144°
2026-05-04 04:22 30.57655 120.06831 9746 ft 295 kts 143°
2026-05-04 04:23 30.55986 120.08218 9410 ft 294 kts 143°
2026-05-04 04:23 30.54338 120.09595 9086 ft 293 kts 143°
2026-05-04 04:23 30.52694 120.10970 8777 ft 291 kts 143°
2026-05-04 04:23 30.51046 120.12345 8466 ft 289 kts 143°
2026-05-04 04:24 30.49424 120.13693 8175 ft 286 kts 145°
2026-05-04 04:24 30.47724 120.14885 7911 ft 286 kts 152°
2026-05-04 04:24 30.45882 120.15883 7940 ft 295 kts 156°
2026-05-04 04:24 30.43974 120.16838 7950 ft 297 kts 156°
2026-05-04 04:25 30.42070 120.17780 7963 ft 296 kts 156°
2026-05-04 04:25 30.40178 120.18720 7976 ft 297 kts 156°
2026-05-04 04:25 30.38293 120.19661 7972 ft 297 kts 156°
2026-05-04 04:25 30.36376 120.20620 7971 ft 297 kts 156°
2026-05-04 04:26 30.34487 120.21567 7984 ft 297 kts 156°
2026-05-04 04:26 30.32588 120.22537 7987 ft 297 kts 154°
2026-05-04 04:26 30.30752 120.23599 7976 ft 297 kts 153°
2026-05-04 04:26 30.28910 120.24725 7974 ft 297 kts 147°
2026-05-04 04:27 30.27476 120.26402 7974 ft 293 kts 116°
2026-05-04 04:27 30.26945 120.28609 7982 ft 285 kts 87°
2026-05-04 04:27 30.27330 120.30822 7988 ft 278 kts 62°
2026-05-04 04:27 30.28232 120.32787 7949 ft 279 kts 58°
2026-05-04 04:28 30.29167 120.34759 7921 ft 279 kts 58°
2026-05-04 04:28 30.30096 120.36761 7906 ft 280 kts 58°
2026-05-04 04:28 30.31003 120.38762 7899 ft 280 kts 59°
2026-05-04 04:28 30.31920 120.40806 7892 ft 280 kts 59°
2026-05-04 04:29 30.32816 120.42827 7790 ft 282 kts 59°
2026-05-04 04:29 30.33709 120.44840 7445 ft 280 kts 59°
2026-05-04 04:29 30.34589 120.46832 7124 ft 278 kts 59°
2026-05-04 04:29 30.35469 120.48822 6810 ft 275 kts 59°
2026-05-04 04:30 30.36337 120.50784 6506 ft 273 kts 60°
2026-05-04 04:30 30.37188 120.52714 6203 ft 271 kts 60°
2026-05-04 04:30 30.38037 120.54640 5900 ft 269 kts 60°
2026-05-04 04:30 30.38882 120.56556 5583 ft 266 kts 60°
2026-05-04 04:31 30.39725 120.58466 5228 ft 264 kts 60°
2026-05-04 04:31 30.40541 120.60317 5076 ft 254 kts 60°
2026-05-04 04:31 30.41321 120.62096 5025 ft 240 kts 60°
2026-05-04 04:31 30.41892 120.63859 4920 ft 232 kts 85°
2026-05-04 04:32 30.41523 120.65588 4870 ft 222 kts 124°
2026-05-04 04:32 30.40366 120.66752 4514 ft 223 kts 155°
2026-05-04 04:32 30.38960 120.67498 4220 ft 222 kts 156°
2026-05-04 04:32 30.37569 120.68237 3942 ft 220 kts 155°
2026-05-04 04:33 30.36168 120.68938 3632 ft 212 kts 168°
2026-05-04 04:33 30.34777 120.68832 3371 ft 193 kts 206°
2026-05-04 04:33 30.33812 120.67879 3116 ft 179 kts 233°
2026-05-04 04:33 30.33192 120.66695 2923 ft 164 kts 243°
2026-05-04 04:34 30.32723 120.65573 2909 ft 151 kts 245°
2026-05-04 04:34 30.32273 120.64476 2911 ft 150 kts 244°
2026-05-04 04:34 30.31814 120.63387 2908 ft 150 kts 243°
2026-05-04 04:34 30.31350 120.62312 2933 ft 142 kts 243°
2026-05-04 04:35 30.30912 120.61318 2909 ft 137 kts 243°
2026-05-04 04:35 30.30514 120.60313 2882 ft 137 kts 251°
2026-05-04 04:35 30.30256 120.59259 2804 ft 136 kts 257°
2026-05-04 04:35 30.30102 120.58170 2672 ft 136 kts 262°
2026-05-04 04:36 30.29955 120.57083 2446 ft 136 kts 259°
2026-05-04 04:36 30.29791 120.56022 2242 ft 135 kts 260°
2026-05-04 04:36 30.29636 120.54942 2092 ft 135 kts 258°
2026-05-04 04:36 30.29450 120.53880 1967 ft 135 kts 257°
2026-05-04 04:37 30.28294 120.50935 1632 ft 134 kts 239°
2026-05-04 04:37 30.27858 120.49991 1417 ft 131 kts 246°
2026-05-04 04:38 30.27493 120.49017 1141 ft 131 kts 246°
2026-05-04 04:38 30.27082 120.48089 865 ft 131 kts 240°
2026-05-04 04:38 30.26629 120.47176 633 ft 130 kts 242°
2026-05-04 04:38 30.26221 120.46243 465 ft 129 kts 245°
2026-05-04 04:39 30.25819 120.45326 313 ft 129 kts 242°
2026-05-04 04:39 30.25398 120.44405 150 ft 128 kts 243°
2026-05-04 04:39 30.24998 120.43488 36 ft 123 kts 242°
2026-05-04 04:39 30.24711 120.42837 29 ft 49 kts 243°
2026-05-04 04:40 30.24569 120.42519 28 ft 41 kts 243°
2026-05-04 04:40 30.24417 120.42266 28 ft 33 kts 222°
2026-05-04 04:40 30.24300 120.42166 28 ft 5 kts 204°
2026-05-04 04:40 30.24257 120.42168 28 ft 6 kts 151°
2026-05-04 04:41 30.24248 120.42224 28 ft 9 kts 75°
2026-05-04 04:41 30.24291 120.42328 28 ft 19 kts 64°
2026-05-04 04:41 30.24264 120.42439 28 ft 16 kts 160°
2026-05-04 04:41 30.24172 120.42516 28 ft 15 kts 133°
2026-05-04 04:42 30.24076 120.42577 28 ft 15 kts 153°
2026-05-04 04:42 30.24032 120.42607 28 ft 5 kts 125°
2026-05-04 04:42 30.24036 120.42639 28 ft 3 kts 67°
2026-05-04 04:42 30.24045 120.42666 28 ft 1 kts 70°
2026-05-04 04:43 30.24046 120.42670 28 ft 0 kts 71°